DW0805 Ramloese DK current weather conditions

sailwx.info

Wind from 135 at 6 knots gusting 14

Air temperature 28.9° C
Dewpoint 13.1° C

Last reported at 2014-Jul-25 12:45 UTC.
Time now 2014-Jul-25 13:45 UTC

Location: N 56°01' E 012°05'.
View on Google Maps.

See reports from other nearby stations

  
Tides and Currents Weather Stations Pressure Air Temp Water Temp Dewpoint Dewpoint Depression Visibility Wind Speed Wind Dir Waves Ship Positions
date/time (UTC)wind fromknots sea level pressurealtimeterstation pressurevisibilityair tempwater tempwave heightnotes
2014-Jul-25 12:45 135 6 gusting 14 28.9
2014-Jul-25 12:35 092 9 gusting 13 28.9
2014-Jul-25 12:25 124 9 gusting 14 28.9
2014-Jul-25 12:15 135 10 gusting 15 28.9
2014-Jul-25 12:05 123 8 gusting 18 28.3
2014-Jul-25 11:55 101 11 gusting 14 28.9
2014-Jul-25 11:45 095 9 gusting 15 28.3
2014-Jul-25 11:35 096 6 gusting 11 27.8
2014-Jul-25 11:25 127 0 gusting 13 28.9
2014-Jul-25 11:15 083 8 gusting 13 28.3
2014-Jul-25 11:05 099 8 gusting 15 28.3
2014-Jul-25 10:55 112 6 gusting 17 28.3
2014-Jul-25 10:45 135 6 gusting 14 28.3
2014-Jul-25 10:35 107 10 gusting 14 28.3
2014-Jul-25 10:25 104 11 gusting 17 28.3
2014-Jul-25 10:15 123 6 gusting 12 27.8
2014-Jul-25 10:05 101 7 gusting 13 27.8
2014-Jul-25 09:55 122 6 gusting 13 28.3
2014-Jul-25 09:45 095 7 gusting 12 27.8
2014-Jul-25 09:35 131 6 gusting 11 27.8
2014-Jul-25 09:25 099 7 gusting 12 27.8
2014-Jul-25 09:15 084 5 gusting 6 27.8
2014-Jul-25 09:05 116 4 gusting 7 27.2
2014-Jul-25 08:55 065 3 gusting 7 26.7
2014-Jul-25 08:45 176 3 gusting 8 26.7
2014-Jul-25 08:35 065 2 gusting 7 26.7
2014-Jul-25 08:25 087 3 gusting 6 27.2
2014-Jul-25 08:15 061 5 gusting 7 26.1
2014-Jul-25 08:05 089 1 gusting 8 26.1
2014-Jul-25 07:55 094 4 gusting 7 26.1
2014-Jul-25 07:45 034 4 gusting 7 26.1
2014-Jul-25 07:35 091 2 gusting 7 25.6
2014-Jul-25 07:25 094 2 gusting 6 25.6
2014-Jul-25 07:15 066 4 gusting 7 25.6
2014-Jul-25 07:05 072 4 gusting 7 24.4
2014-Jul-25 06:55 075 4 gusting 6 25.0
2014-Jul-25 06:45 072 3 gusting 6 24.4
2014-Jul-25 06:35 081 4 gusting 6 25.0
2014-Jul-25 06:25 051 2 gusting 6 24.4
2014-Jul-25 06:15 054 3 gusting 7 23.9
2014-Jul-25 06:05 065 1 gusting 6 23.9
2014-Jul-25 05:55 035 2 gusting 5 22.8
2014-Jul-25 05:45 042 1 gusting 6 22.2
2014-Jul-25 05:35 031 2 gusting 6 21.7
2014-Jul-25 05:25 041 2 gusting 5 21.1
2014-Jul-25 05:15 043 2 gusting 6 20.6
2014-Jul-25 05:05 048 1 gusting 5 20.0
2014-Jul-25 04:55 055 2 gusting 6 20.0
2014-Jul-25 04:45 051 1 gusting 5 19.4
2014-Jul-25 04:35 052 1 gusting 5 18.9
2014-Jul-25 04:25 053 1 gusting 5 18.3
2014-Jul-25 04:05 054 2 gusting 6 17.2
2014-Jul-25 03:55 056 2 gusting 6 16.7
2014-Jul-25 03:45 061 1 gusting 5 16.1
2014-Jul-25 03:35 062 1 gusting 4 15.0
2014-Jul-25 03:25 063 1 gusting 2 13.9
2014-Jul-25 03:15 063 0 gusting 1 13.3
2014-Jul-25 03:05 063 13.9
2014-Jul-25 02:55 063 13.9
2014-Jul-25 02:45 063 13.9
2014-Jul-25 02:35 063 0 gusting 2 14.4
2014-Jul-25 02:25 063 14.4
2014-Jul-25 02:15 063 15.0
2014-Jul-25 02:05 063 15.6
2014-Jul-25 01:55 063 15.6
2014-Jul-25 01:45 063 15.6
2014-Jul-25 01:35 063 16.1
2014-Jul-25 01:25 063 16.1
2014-Jul-25 01:15 063 16.7
2014-Jul-25 01:05 063 17.2
2014-Jul-25 00:55 063 0 gusting 1 17.2
2014-Jul-25 00:45 063 1 gusting 2 17.2
2014-Jul-25 00:35 063 0 gusting 2 17.8
2014-Jul-25 00:25 063 1 gusting 2 17.2
2014-Jul-25 00:15 063 0 gusting 1 17.2
2014-Jul-25 00:05 063 17.8
2014-Jul-24 23:55 063 0 gusting 1 17.8
2014-Jul-24 23:45 063 0 gusting 1 17.8
2014-Jul-24 23:35 058 17.8
2014-Jul-24 23:25 041 17.8
2014-Jul-24 23:15 041 18.3
2014-Jul-24 23:05 040 18.3
2014-Jul-24 22:55 040 18.3
2014-Jul-24 22:45 040 18.3
2014-Jul-24 22:35 041 18.3
2014-Jul-24 22:25 040 0 gusting 0 18.9
2014-Jul-24 22:15 041 18.9
2014-Jul-24 22:05 040 19.4
2014-Jul-24 21:55 040 20.0
2014-Jul-24 21:45 041 0 gusting 2 20.0
2014-Jul-24 21:35 040 0 gusting 2 20.6
2014-Jul-24 21:25 040 1 gusting 2 20.6
2014-Jul-24 21:15 040 0 gusting 2 20.6
2014-Jul-24 21:05 041 1 gusting 2 21.1
2014-Jul-24 20:55 041 0 gusting 2 21.1
2014-Jul-24 20:45 040 0 gusting 2 21.1
2014-Jul-24 20:35 040 0 gusting 1 21.1
2014-Jul-24 20:25 040 0 gusting 4 21.7
2014-Jul-24 20:15 040 0 gusting 2 21.7
2014-Jul-24 20:05 040 1 gusting 4 21.7
2014-Jul-24 19:55 040 1 gusting 2 21.7
2014-Jul-24 19:45 049 0 gusting 4 22.2
2014-Jul-24 19:35 044 1 gusting 5 22.2
2014-Jul-24 19:25 046 0 gusting 5 22.2
2014-Jul-24 19:15 033 1 gusting 6 22.8
2014-Jul-24 19:05 042 1 gusting 7 22.8
2014-Jul-24 18:55 030 1 gusting 5 23.3
2014-Jul-24 18:45 029 0 gusting 5 23.9
2014-Jul-24 18:35 032 1 gusting 5 24.4
2014-Jul-24 18:25 108 1 gusting 2 25.0
2014-Jul-24 18:15 110 25.6
2014-Jul-24 18:05 109 2 gusting 5 25.6
2014-Jul-24 17:55 109 4 gusting 6 25.6
2014-Jul-24 17:45 129 5 gusting 7 26.1
2014-Jul-24 17:35 107 6 gusting 8 26.1
2014-Jul-24 17:25 112 4 gusting 12 26.1
2014-Jul-24 17:15 115 6 gusting 12 26.1
2014-Jul-24 17:05 126 8 gusting 12 26.7
2014-Jul-24 16:55 112 6 gusting 12 26.7
2014-Jul-24 16:45 141 4 gusting 10 26.7
2014-Jul-24 16:35 121 5 gusting 13 26.7
2014-Jul-24 16:25 130 7 gusting 12 27.2
2014-Jul-24 16:15 113 5 gusting 14 27.2
2014-Jul-24 16:05 114 9 gusting 15 26.7
2014-Jul-24 15:55 092 8 gusting 13 27.2
2014-Jul-24 15:45 117 10 gusting 14 27.2
2014-Jul-24 15:35 131 7 gusting 14 27.2
2014-Jul-24 15:25 129 7 gusting 17 27.2
2014-Jul-24 15:15 102 8 gusting 17 27.2
2014-Jul-24 15:05 128 7 gusting 15 27.2
2014-Jul-24 14:55 111 13 gusting 17 27.8
2014-Jul-24 14:45 128 12 gusting 18 27.8
2014-Jul-24 14:35 137 9 gusting 15 27.8
2014-Jul-24 14:25 111 6 gusting 14 27.8
2014-Jul-24 14:15 096 12 gusting 17 27.8
2014-Jul-24 14:05 094 5 gusting 14 27.8
2014-Jul-24 13:55 104 7 gusting 13 27.8
2014-Jul-24 13:45 141 5 gusting 14 27.8
2014-Jul-24 13:35 127 6 gusting 12 27.2
2014-Jul-24 13:25 117 5 gusting 14 27.8
2014-Jul-24 13:15 121 6 gusting 13 27.8
2014-Jul-24 13:05 109 6 gusting 14 27.8
2014-Jul-24 12:55 075 4 gusting 13 27.8
2014-Jul-24 12:45 111 7 gusting 14 27.8
2014-Jul-24 12:35 072 6 gusting 13 27.2
2014-Jul-24 12:25 073 2 gusting 8 26.7
2014-Jul-24 12:15 101 5 gusting 10 27.2
2014-Jul-24 12:05 099 6 gusting 14 27.2
2014-Jul-24 11:55 138 6 gusting 12 26.7
2014-Jul-24 11:45 103 5 gusting 15 27.2
2014-Jul-24 11:35 137 11 gusting 15 27.8
2014-Jul-24 11:25 117 5 gusting 8 27.8
2014-Jul-24 11:15 095 6 gusting 13 26.7
2014-Jul-24 11:05 125 5 gusting 13 27.2
2014-Jul-24 10:55 132 7 gusting 13 27.8
2014-Jul-24 10:45 138 6 gusting 14 27.2
2014-Jul-24 10:35 120 6 gusting 13 27.2
2014-Jul-24 10:25 127 4 gusting 12 27.8
2014-Jul-24 10:15 121 6 gusting 12 27.2
2014-Jul-24 10:05 126 5 gusting 12 27.2
2014-Jul-24 09:55 115 6 gusting 12 27.2
2014-Jul-24 09:45 085 7 gusting 11 26.7
2014-Jul-24 09:35 092 3 gusting 8 27.2
2014-Jul-24 09:25 062 4 gusting 12 26.7
2014-Jul-24 09:15 130 6 gusting 11 26.7
2014-Jul-24 09:05 122 5 gusting 10 26.1
2014-Jul-24 08:55 086 6 gusting 13 26.7
2014-Jul-24 08:45 065 5 gusting 10 26.1
2014-Jul-24 08:35 076 6 gusting 11 26.1
2014-Jul-24 08:25 066 6 gusting 10 26.1
2014-Jul-24 08:15 115 6 gusting 10 25.6
2014-Jul-24 08:05 106 4 gusting 7 25.6
2014-Jul-24 07:55 121 5 gusting 8 25.0
2014-Jul-24 07:45 093 5 gusting 8 24.4
2014-Jul-24 07:35 118 6 gusting 8 25.0
2014-Jul-24 07:25 076 3 gusting 7 24.4
2014-Jul-24 07:15 063 4 gusting 6 23.9
2014-Jul-24 07:05 077 2 gusting 7 23.9
2014-Jul-24 06:55 072 3 gusting 6 23.9
2014-Jul-24 06:45 057 2 gusting 6 23.3
2014-Jul-24 06:35 062 5 gusting 7 22.8
2014-Jul-24 06:25 080 4 gusting 6 22.8
2014-Jul-24 06:15 058 3 gusting 6 21.7
2014-Jul-24 06:05 058 2 gusting 6 21.7
2014-Jul-24 05:55 053 2 gusting 6 20.6
2014-Jul-24 05:45 057 3 gusting 6 18.9
2014-Jul-24 04:45 037 2 gusting 5 18.3
2014-Jul-24 04:35 038 1 gusting 5 18.3
2014-Jul-24 04:25 036 2 gusting 5 17.2
2014-Jul-24 04:15 032 1 gusting 5 17.2
2014-Jul-24 04:05 034 2 gusting 5 17.2
2014-Jul-24 03:55 035 1 gusting 5 17.2
2014-Jul-24 03:45 037 1 gusting 5 16.7
2014-Jul-24 03:35 039 2 gusting 6 16.7
2014-Jul-24 03:25 043 2 gusting 5 16.7
2014-Jul-24 03:15 043 1 gusting 4 16.7
2014-Jul-24 03:05 043 1 gusting 4 16.7
2014-Jul-24 02:55 043 0 gusting 4 16.7
2014-Jul-24 02:45 045 1 gusting 4 16.7
2014-Jul-24 02:35 042 1 gusting 4 16.7
2014-Jul-24 02:25 043 1 gusting 4 17.2
2014-Jul-24 02:15 043 1 gusting 4 17.2
2014-Jul-24 02:05 044 1 gusting 4 17.2
2014-Jul-24 01:55 043 0 gusting 4 17.8
2014-Jul-24 01:45 035 0 gusting 2 17.8
2014-Jul-24 01:35 035 1 gusting 4 17.8
2014-Jul-24 01:25 035 1 gusting 5 17.8
2014-Jul-24 01:15 045 1 gusting 5 17.8
2014-Jul-24 01:05 041 1 gusting 4 17.8
2014-Jul-24 00:55 041 0 gusting 4 17.8
2014-Jul-24 00:45 040 1 gusting 5 18.3
2014-Jul-24 00:35 033 1 gusting 5 18.3
2014-Jul-24 00:25 034 0 gusting 5 18.3
2014-Jul-24 00:15 037 1 gusting 5 18.9
2014-Jul-24 00:05 041 1 gusting 5 18.9
2014-Jul-23 23:55 039 1 gusting 5 18.9
2014-Jul-23 23:45 034 1 gusting 5 18.9
2014-Jul-23 23:35 052 2 gusting 5 18.9
2014-Jul-23 23:25 039 1 gusting 5 18.9
2014-Jul-23 23:15 039 1 gusting 5 18.9
2014-Jul-23 23:05 037 1 gusting 4 18.9
2014-Jul-23 22:55 040 0 gusting 4 18.9
2014-Jul-23 22:45 036 0 gusting 4 18.9
2014-Jul-23 22:35 036 0 gusting 4 18.9
2014-Jul-23 22:25 036 1 gusting 4 18.9
2014-Jul-23 22:15 033 1 gusting 4 18.9
2014-Jul-23 22:05 032 0 gusting 5 18.3
2014-Jul-23 21:55 034 0 gusting 4 18.3
2014-Jul-23 21:45 034 1 gusting 4 18.3
2014-Jul-23 21:35 034 0 gusting 2 18.3
2014-Jul-23 21:25 034 0 gusting 2 18.9
2014-Jul-23 21:15 034 0 gusting 1 18.9
2014-Jul-23 21:05 034 19.4
2014-Jul-23 20:55 034 0 gusting 1 20.0
2014-Jul-23 20:45 034 0 gusting 4 20.0
2014-Jul-23 20:35 034 20.6
2014-Jul-23 20:25 034 20.6
2014-Jul-23 20:15 034 0 gusting 4 20.6
2014-Jul-23 20:05 034 0 gusting 4 21.1
2014-Jul-23 19:55 033 1 gusting 5 21.1
2014-Jul-23 19:45 036 0 gusting 2 21.1
2014-Jul-23 19:35 036 1 gusting 4 21.7
2014-Jul-23 19:25 038 1 gusting 5 21.7
2014-Jul-23 19:15 053 1 gusting 5 22.2
2014-Jul-23 19:05 045 1 gusting 5 22.2
2014-Jul-23 18:55 051 1 gusting 5 22.2
2014-Jul-23 18:45 070 2 gusting 5 22.8
2014-Jul-23 18:35 052 1 gusting 6 22.8
2014-Jul-23 18:25 057 4 gusting 6 23.3
2014-Jul-23 18:15 044 4 gusting 8 23.3
2014-Jul-23 18:05 014 3 gusting 6 23.3
2014-Jul-23 17:45 028 2 gusting 10 23.9
2014-Jul-23 17:35 038 2 gusting 7 23.9
2014-Jul-23 17:25 037 2 gusting 8 23.9
2014-Jul-23 17:05 025 2 gusting 5 24.4
2014-Jul-23 16:55 035 3 gusting 12 24.4
2014-Jul-23 16:35 022 4 gusting 11 25.0
2014-Jul-23 16:25 017 1 gusting 12 25.6
2014-Jul-23 16:15 029 2 gusting 6 25.0
2014-Jul-23 16:05 029 3 gusting 10 25.6
2014-Jul-23 15:55 042 3 gusting 12 26.1
2014-Jul-23 15:45 350 4 gusting 12 26.1
2014-Jul-23 15:35 357 4 gusting 8 26.1
2014-Jul-23 15:25 348 2 gusting 11 26.7
2014-Jul-23 15:15 011 4 gusting 10 26.7
2014-Jul-23 15:05 012 4 gusting 8 26.7
2014-Jul-23 14:55 008 2 gusting 11 27.2
2014-Jul-23 14:35 009 6 gusting 11 27.2
2014-Jul-23 14:25 023 2 gusting 7 27.2
2014-Jul-23 14:05 048 2 gusting 8 27.2
2014-Jul-23 13:55 009 4 gusting 8 27.2
2014-Jul-23 13:45 055 6 gusting 12 27.8
2014-Jul-23 13:35 005 6 gusting 11 27.2
2014-Jul-23 13:25 030 3 gusting 8 27.8
2014-Jul-23 13:15 354 4 gusting 12 27.2
2014-Jul-23 13:05 002 5 gusting 10 27.8